User: anonymous   Login
Location: Sunny Point
(33.0946°N, 85.0574°W)
Time: 07:11:28
(UTC+00:00)
Language:

NOAA 19 - Orbit

View from above orbital plane
View from above orbital plane
View from above satellite
View from above satellite

Ground track
Ground track

The orbit data is extracted from the following two-line orbital elements,

1 33591U 09005A   24197.90782423  .00000283  00000-0  17608-3 0  9991
2 33591  99.0455 254.0089 0013425 207.4117 152.6348 14.13047852795421
Epoch (UTC): 15 July 2024 21:47:16
Eccentricity: 0.0013425
inclination: 99.0455°
perigee height: 839 km
apogee height: 858 km
right ascension of ascending node: 254.0089°
argument of perigee: 207.4117°
revolutions per day: 14.13047852
mean anomaly at epoch: 152.6348°
orbit number at epoch: 79542

The dashed part of the orbit path shows where the satellite is in the earth's shadow,  

DLR